This is the latest recevied weather packets stored in our database for station/object YO6IKB-10. If no packets are shown the sender has not sent any weather packets the latest 10 day(s).
| Time | Temp. | Humidity | Pressure | Rain* | Wind** | Luminosity | Snow |
|---|---|---|---|---|---|---|---|
| 1777980168 | 26.11° C | 34% | 1011.5 hPa | 0 mm | - | - | - |
| 1777979267 | 26.67° C | 34% | 1011.6 hPa | 0 mm | - | - | - |
| 1777978967 | 26.11° C | 36% | 1011.6 hPa | 0 mm | - | - | - |
| 1777977165 | 27.22° C | 37% | 1011.9 hPa | 0 mm | - | - | - |
| 1777976564 | 26.11° C | 37% | 1011.9 hPa | 0 mm | - | - | - |
| 1777976264 | 26.11° C | 40% | 1012.1 hPa | 0 mm | - | - | - |
| 1777975964 | 25.56° C | 40% | 1012.1 hPa | 0 mm | - | - | - |
| 1777975663 | 25.56° C | 38% | 1012.1 hPa | 0 mm | - | - | - |
| 1777975363 | 25.56° C | 41% | 1012.2 hPa | 0 mm | - | - | - |
| 1777975063 | 25° C | 39% | 1012.3 hPa | 0 mm | - | - | - |
| 1777973862 | 25.56° C | 41% | 1012.5 hPa | 0 mm | - | - | - |
| 1777973561 | 25.56° C | 40% | 1012.6 hPa | 0 mm | - | - | - |
| 1777973261 | 25.56° C | 42% | 1012.6 hPa | 0 mm | - | - | - |
| 1777972961 | 25.56° C | 42% | 1012.7 hPa | 0 mm | - | - | - |
| 1777972660 | 25.56° C | 42% | 1012.7 hPa | 0 mm | - | - | - |
| 1777972360 | 25° C | 43% | 1012.8 hPa | 0 mm | - | - | - |
| 1777972060 | 24.44° C | 43% | 1012.9 hPa | 0 mm | - | - | - |
| 1777971759 | 24.44° C | 44% | 1012.9 hPa | 0 mm | - | - | - |
| 1777971159 | 24.44° C | 42% | 1012.9 hPa | 0 mm | - | - | - |
| 1777970859 | 23.89° C | 44% | 1013 hPa | 0 mm | - | - | - |
| 1777970258 | 24.44° C | 43% | 1013.1 hPa | 0 mm | - | - | - |
| 1777969958 | 24.44° C | 44% | 1013.1 hPa | 0 mm | - | - | - |
| 1777969657 | 23.89° C | 43% | 1013.1 hPa | 0 mm | - | - | - |
| 1777969357 | 24.44° C | 43% | 1013.2 hPa | 0 mm | - | - | - |
| 1777969057 | 23.89° C | 43% | 1013.3 hPa | 0 mm | - | - | - |
* Rain latest hour (hover to see other rain measurements)
** Current wind speed in m/s (hover to see current wind gust speed)